Regional Weather Roundup
Issued by NWS Charleston, SC

Current Version | Previous Version | Text Only | Print | Product List | Glossary Off
Versions: 1 2 3 4 5 6 7 8 9 10 11 12 13 14 15 16 17 18 19 20 21 22 23 24 25 26 27 28 29 30 31 32 33 34 35 36 37 38 39 40 41 42 43 44 45 46 47 48 49 50

000
ASUS42 KCHS 230925
RWRCHS

REGIONAL WEATHER ROUNDUP
NATIONAL WEATHER SERVICE CHARLESTON SC
400 AM EST SUN NOV 23 2014

NOTE: "FAIR" INDICATES FEW OR NO CLOUDS BELOW 12,000 FEET WITH NO
SIGNIFICANT WEATHER AND/OR OBSTRUCTIONS TO VISIBILITY.

NOT ALL STATIONS ARE QUALITY CONTROLLED BY THE NATIONAL
WEATHER SERVICE. USE DATA WITH CAUTION...ESPECIALLY
DEWPOINT OBSERVATIONS.

SCZ027-030-031-034>040-042>050-231000-
...SOUTHEAST SOUTH CAROLINA...

CITY           SKY/WX    TMP DP  RH WIND       PRES   REMARKS
N CHARLESTON   CLOUDY    57  55  93 NE6       30.19F
WATERFRONT PRK   N/A     61 N/A N/A NE9         N/A
MOUNT PLEASANT PTSUNNY   57  57 100 CALM      30.18F
JOHNS ISLAND   LGT RAIN  61  61 100 NE5       30.17F
PINOPOLIS      NOT AVBL
MONCKS CORNER  FAIR      55  55 100 CALM      30.20S FOG
SUMMERVILLE    RAIN      54  54 100 N3        30.20F
BEAUFORT MCAS  LGT RAIN  58  56  93 NE8       30.15F
BEAUFORT ARPT  LGT RAIN  57  57 100 NE9       30.14F
HILTON HEAD IS RAIN      59  57  94 N8        30.13F
WALTERBORO     DRIZZLE   55 N/A N/A NE7       30.18F
ALLENDALE      LGT RAIN  55  54  94 CALM      30.17S

...SOUTHERN MIDLANDS AND PEE DEE...

CITY           SKY/WX    TMP DP  RH WIND       PRES   REMARKS
GEORGETOWN     NOT AVBL
KINGSTREE      NOT AVBL
ORANGEBURG     LGT RAIN  52  50  93 NE8       30.21F FOG
BARNWELL       RAIN      54  54 100 E6        30.19F
AIKEN          RAIN      50  50 100 CALM      30.21F
MANNING        NOT AVBL
COLUMBIA       LGT RAIN  48  46  93 NE6       30.21F
SUMTER         LGT RAIN  48  48 100 NE5       30.21F
FLORENCE       LGT RAIN  48  45  89 CALM      30.24R
MYRTLE BEACH   CLOUDY    54  52  94 NE3         N/A
N MYRTLE BEACH LGT RAIN  52  50  93 NE5       30.24F

$$

GAZ063-065-086>088-099>101-113>116-118-119-134>141-150-231000-
...SOUTHEAST GEORGIA...

CITY           SKY/WX    TMP DP  RH WIND       PRES   REMARKS
SAVANNAH ARPT  RAIN      61  57  87 NE9       30.11F
HUNTER AAF     RAIN      61  61 100 NE7       30.09F FOG
FORT STEWART   LGT RAIN  61  59  94 NE6       30.07F
STATESBORO     NOT AVBL
SYLVANIA       RAIN      58  57  97 NE9       30.14F
CLAXTON        RAIN      59  59 100 NE9       30.10F

...CSRA...CENTRAL AND FAR SOUTHEAST GEORGIA...

CITY           SKY/WX    TMP DP  RH WIND       PRES   REMARKS
THOMSON        CLOUDY    50  50 100 NE3       30.21F
AUGUSTA-BUSH   LGT RAIN  51  50  96 N3        30.18S FOG
AUGUSTA-DANIEL LGT RAIN  53  52  96 E6        30.18F FOG
SWAINSBORO     LGT RAIN  57  57 100 E8        30.11F
VIDALIA        HVY RAIN  57  57 100 NE9       30.09F
HAZLEHURST     RAIN      59  59 100 NE7       30.06F
ALMA           LGT RAIN  60  59  96 E6        30.04F FOG
WAYCROSS       LGT RAIN  66  65  99 E10       30.03F
JESUP          RAIN      63  63 100 E7        30.06F
BAXLEY         RAIN      61  59  94 E10       30.07S
BRUNSWICK      CLOUDY    66  63  88 E9        30.07F
SAINT SIMONS   LGT RAIN  62  62 100 E12       30.06F

$$

SCZ027-028-034-036>038-045-046-048>050-GAZ119-141-231000-
...LAKE AND SUPPLEMENTAL COASTAL OBSERVATIONS...

STATION/POSITION TIME  TEMP    WIND        PRES    WAVE   SWELL
                       AIR SEA DIR/SP/G            HT/PER HT/PER/DIR
                 (UTC) (F)     (DEG/KT/KT) (MB)    (FT/S) (FT/S/D)
UPR LAKE MARION  NOT AVBL
WINYAH BAY       0900   57      50/  4     1023.0S
LAKE MURRAY      0900   46      40/  3/  5 1022.4F
ACE BASIN NERRS  0900   57      30/  3     1021.0S
FORT PULASKI     0900   60      40/ 17/ 21 1019.7F
SAPELO ISLAND    NOT AVBL

$$

ANZ835-935-AMZ111-154-330-350-352-354-370-450-454-472-231000-
...C-MAN AND BUOY OBSERVATIONS...

STATION/POSITION TIME  TEMP    WIND        PRES    WAVE   SWELL
                       AIR SEA DIR/SP/G            HT/PER HT/PER/DIR
                 (UTC) (F)     (DEG/KT/KT) (MB)    (FT/S) (FT/S/D)
FOLLY BEACH CMAN 0900   58      40/ 11/ 12 1022.2F
BUOY 41004       0900   71 75  100/ 16/ 17 1021.4F   5/ 8   3/ 8
BUOY 41008       0900   67 64  120/ 14/ 17 1018.2F   6/ 8   3/110/ 8
CAPERS NEARSHORE 0800   57      50/ 10/ 12   N/A
FRIPP NEARSHORE  NOT AVBL


STATION/POSITION TIME  TEMP    WIND        PRES    WAVE   SWELL
                       AIR SEA DIR/SP/G            HT/PER HT/PER/DIR
                 (UTC) (F)     (DEG/KT/KT) (MB)    (FT/S) (FT/S/D)
5E ST. MARYS GA  0900      61                N/A     7/ 7
FRYING PAN BUOY  0900   66 62  140/  6/  8 1025.0R   3/ 8   3/130/ 8
BUOY 41025       0900   65     190/ 10/ 14 1026.0F   3/ 8   2/ 70/ 8
CAPE LOOKOUT NC  0900   61     150/  6/  6 1025.0F
BUOY 41002       0845   69 73  140/ 14/ 17 1024.9F   4/ 8   3/ 50/ 8
BUOY 41010       0900   75 78  110/ 21/ 25 1019.0F   9/10   5/110/10
ST AUGUSTINE FL  0900   67     130/ 13/ 14 1016.7F


$$


USA.gov is the U.S. government's official web portal to all federal, state and local government web resources and services.